Starlink 30274

operational
NORAD ID: 57672 Int'l Des: 2023-124 Owner: SPXS Country: US Constellation: starlink
LEOCIRCULAR

Über Starlink 30274

Beschreibung wird geladen...

Live-Position

3D-Globus wird geladen...

Nächste Überflüge

Höhenverlauf

Altitude vs Time

uPlot chart will show altitude changes over time

Zweizeiliger Elementsatz

1 57672U 23124K 25307.61313282 .00000461 00000-0 27711-4 0 9995
2 57672 53.1590 72.5624 0001475 88.2883 271.8286 15.30188088124263
Epoch: 3. Nov. 2025 • Age: 13 hours

Aktueller Status

Höhe 478.4 km
Geschwindigkeit 7.63 km/s
Subsatellitenpunkt 41.97°N, 107.41°E
Startdatum 22. Aug. 2023
Alter 2.2 years
Typ internet

Technische Details

Klassifizierung Payload
Masse 730.00 kg
Trockenmasse 700.00 kg
Gesamtmasse 730.00 kg
Länge 0.30 m
Durchmesser 4.10 m
Spannweite 29.00 m
Form Box + pan
Hersteller SPXS
Bus-Typ Starlink V2M
Phasenstatus In Orbit
Besitzer/Staat SPXS/US

Große Konstellationen

Loading constellations...